DW7448 Weather Reports


Display with metric or nautical units.
time (UTC)temp
F
wind
direction
speed
MPH
gust
MPH
rain 1hr
in
rain 24hr
in
rain mn
in
humidity
%
barometer
mb
20181121120403 40 50 3.0 8.0 0.00 0.01 0.00 86 1015.1
20181121114906 40 69 5.0 8.0 0.00 0.01 0.00 87 1015.3
20181121113402 40 43 2.0 5.0 0.00 0.01 0.00 88 1015.4
20181121111903 39 71 0.0 5.0 0.00 0.01 0.00 89 1015.4
20181121110403 39 63 2.0 5.0 0.00 0.01 0.00 89 1015.2
20181121104906 39 78 2.0 7.0 0.00 0.01 0.00 89 1015.2
20181121103403 39 42 4.0 5.0 0.00 0.01 0.00 90 1015.0
20181121101903 39 76 0.0 7.0 0.00 0.01 0.00 90 1015.0
20181121100402 38 42 4.0 8.0 0.00 0.01 0.00 92 1014.9
20181121094903 38 97 5.0 9.0 0.00 0.01 0.00 93 1015.0
20181121093406 37 95 3.0 6.0 0.00 0.01 0.00 94 1015.1
20181121091903 36 95 2.0 5.0 0.00 0.01 0.00 94 1014.8
20181121090403 34 96 0.0 0.0 0.00 0.01 0.00 93 1014.6
20181121084904 34 96 0.0 0.0 0.00 0.01 0.00 92 1014.4
20181121083402 34 96 0.0 3.0 0.00 0.01 0.00 92 1014.3
20181121081903 33 96 1.0 2.0 0.00 0.01 0.00 92 1013.9
20181121080403 34 96 0.0 2.0 0.00 0.01 0.00 91 1013.8
20181121074903 34 96 0.0 0.0 0.00 0.01 0.00 92 1013.5
20181121073403 34 96 0.0 3.0 0.00 0.01 0.00 91 1013.3
20181121071903 34 95 1.0 2.0 0.00 0.01 0.00 91 1013.1
20181121070403 35 95 0.0 0.0 0.00 0.01 0.00 91 1012.9
20181121054903 35 95 0.0 3.0 0.00 0.01 0.00 90 1012.3
20181121053403 36 94 0.0 0.0 0.00 0.01 0.00 90 1011.7
20181121051903 36 94 0.0 0.0 0.00 0.01 0.00 90 1011.7
20181121050406 36 94 0.0 0.0 0.00 0.01 0.00 90 1011.8
20181121044906 36 94 0.0 0.0 0.00 0.01 0.00 90 1011.6
20181121043403 37 94 0.0 2.0 0.00 0.01 0.00 90 1011.3
20181121041902 37 94 0.0 2.0 0.00 0.01 0.00 89 1011.1
20181121040403 37 94 0.0 3.0 0.00 0.01 0.00 89 1011.1
20181121034906 37 94 0.0 1.0 0.00 0.01 0.00 89 1011.1
20181121033403 37 94 0.0 2.0 0.00 0.01 0.00 89 1011.0
20181121031909 37 95 0.0 2.0 0.00 0.01 0.00 89 1010.8
20181121030402 37 96 0.0 4.0 0.00 0.01 0.00 89 1010.7
20181121024905 37 107 0.0 5.0 0.00 0.01 0.00 88 1010.5
20181121023402 37 102 0.0 6.0 0.00 0.01 0.00 88 1010.1
20181121021903 38 122 1.0 3.0 0.00 0.01 0.00 88 1010.5
20181121020403 38 150 2.0 6.0 0.00 0.01 0.00 87 1010.3
20181121014903 38 63 1.0 6.0 0.00 0.01 0.00 87 1010.2
20181121013403 38 141 2.0 3.0 0.00 0.01 0.00 86 1010.2
20181121011903 38 138 1.0 5.0 0.00 0.01 0.00 86 1010.2
20181121010406 38 160 2.0 5.0 0.00 0.02 0.00 86 1009.9
20181121004903 38 159 2.0 8.0 0.00 0.02 0.00 86 1009.5
20181121003408 38 138 3.0 7.0 0.00 0.02 0.00 86 1009.5
20181121001902 38 131 2.0 8.0 0.00 0.02 0.00 87 1009.4
20181121000403 38 158 1.0 7.0 0.00 0.02 0.00 87 1009.1
20181120234903 38 140 1.0 7.0 0.00 0.01 0.00 88 1009.0
20181120233406 38 114 0.0 7.0 0.00 0.02 0.00 88 1009.0
20181120231909 38 111 0.0 5.0 0.00 0.02 0.00 88 1008.7
20181120230403 38 163 1.0 9.0 0.00 0.02 0.00 88 1008.7
20181120224902 38 117 1.0 11.0 0.00 0.02 0.00 87 1008.1
20181120223402 38 103 1.0 8.0 0.00 0.03 0.00 87 1008.2
20181120221903 38 90 2.0 10.0 0.00 0.03 0.00 87 1008.0
20181120220403 38 89 3.0 11.0 0.00 0.03 0.00 86 1008.4
20181120214906 38 109 3.0 9.0 0.00 0.03 0.00 86 1008.5
20181120213403 38 104 4.0 11.0 0.00 0.03 0.00 85 1008.4
20181120211903 38 111 7.0 10.0 0.00 0.03 0.00 85 1008.4
20181120210403 38 123 3.0 13.0 0.00 0.03 0.00 84 1008.2
20181120204902 38 126 7.0 12.0 0.00 0.03 0.00 83 1008.0
20181120203403 38 132 2.0 9.0 0.00 0.03 0.00 83 1007.7
20181120201903 38 88 1.0 8.0 0.00 0.04 0.00 83 1007.4
20181120200402 38 73 1.0 9.0 0.00 0.04 0.00 83 1007.4
20181120194902 38 138 1.0 8.0 0.00 0.04 0.00 83 1007.3
20181120193406 37 139 7.0 11.0 0.00 0.04 0.00 83 1007.0
20181120191903 37 113 2.0 7.0 0.00 0.05 0.00 83 1006.9
20181120190409 37 131 1.0 9.0 0.00 0.05 0.00 82 1006.9
20181120184903 37 173 4.0 13.0 0.00 0.05 0.00 82 1006.5
20181120183408 38 112 9.0 12.0 0.00 0.06 0.00 81 1006.7
20181120181906 38 74 5.0 10.0 0.00 0.06 0.00 81 1006.4
20181120180402 38 148 2.0 8.0 0.00 0.06 0.00 81 1006.4
20181120174909 37 84 0.0 13.0 0.00 0.07 0.00 81 1006.0
20181120173402 37 124 0.0 6.0 0.00 0.07 0.00 80 1005.9
20181120171902 38 94 2.0 9.0 0.00 0.07 0.00 79 1005.7
20181120170403 38 88 0.0 8.0 0.00 0.07 0.00 78 1005.5
20181120164903 39 118 7.0 11.0 0.00 0.07 0.00 78 1005.4
20181120163402 39 124 5.0 11.0 0.00 0.08 0.00 77 1005.3
20181120161905 39 93 6.0 11.0 0.00 0.08 0.00 77 1005.4
20181120160403 39 52 1.0 10.0 0.00 0.08 0.00 77 1005.1
20181120154903 39 86 5.0 10.0 0.00 0.08 0.00 76 1005.1
20181120153402 39 92 3.0 15.0 0.00 0.09 0.00 76 1005.1
20181120151902 39 140 2.0 10.0 0.00 0.09 0.00 76 1005.2
20181120150406 39 92 3.0 10.0 0.00 0.10 0.00 75 1005.0
20181120144906 39 104 1.0 11.0 0.00 0.10 0.00 74 1004.9
20181120143402 40 143 3.0 15.0 0.00 0.10 0.00 74 1004.8
20181120141903 40 73 4.0 14.0 0.00 0.10 0.00 73 1004.8
20181120140402 40 72 5.0 17.0 0.00 0.11 0.00 74 1004.9
20181120134902 39 150 5.0 13.0 0.00 0.11 0.00 75 1005.0
20181120133405 39 118 4.0 17.0 0.00 0.11 0.00 73 1004.9
20181120131902 39 125 5.0 15.0 0.00 0.11 0.00 74 1005.0
20181120130405 39 63 10.0 14.0 0.00 0.12 0.00 74 1005.3
20181120124902 39 88 8.0 14.0 0.00 0.13 0.00 75 1005.0
20181120123402 39 84 5.0 16.0 0.00 0.13 0.00 74 1005.1
20181120121903 39 103 9.0 17.0 0.00 0.14 0.00 74 1005.0